SCP
0 0 -0 -0 -0 -0 -0 -0 -0 -0 -0 -0 -0 -0 0 -0 -0 -0 -0 -0 -0 -0 -0 -0 -0 -0 -0 -0 -0 -0 -0 -0 -0 -0 -0 -0 -0 -0 0 0 -0 -0 -0
0 0 -0 -0 -0 -0 -0 -0 -0 -0 -0 -0 -0 -0 -0 -0 -0 -0 -0 -0 -0 -0 -0 -0 -0 -0 -0 -0 -0 -0 -0 -0 -0 -0 0 0 -0 -0 0 -0 -0 -0 -0
0 0 -0 -0 -0 -0 -0 -0 -0 -0 -0 -0 -0 -0 -0 -0 -0 -0 -0 -0 -0 -0 -0 -0 -0 -0 -0 -0 -0 -0 -0 -0 -0 0 -0 -0 0 0 0 0 -0 -0 -0
0 0 0 -0 -0 -0 0 -0 -0 -0 -0 -0 -0 -0 -0 -0 -0 -0 -0 -0 -0 -0 -0 -0 -0 -0 -0 -0 -0 -0 -0 -0 -0 -0 -0 -0 -0 0 0 0 0 -0 -0
0 0 0 -0 -0 -0 0 -0 -0 -0 -0 -0 -0 -0 0 0 -0 -0 -0 -0 -0 -0 -0 -0 -0 -0 -0 -0 -0 -0 -0 -0 0 0 0 0 -0 0 0 0 -0 -0 -0
0 0 0 0 -0 -0 0 -0 -0 -0 -0 -0 -0 -0 -0 0 0 0 0 0 -0 -0 -0 -0 -0 -0 -0 -0 -0 -0 0 0 0 0 0 -0 -0 0 0 0 0 -0 -0
0 0 0 0 0 0 0 -0 -0 0 0 0 -0 -0 -0 -0 0 0 0 0 -0 -0 -0 0 0 0 0 -0 0 0 0 0 0 0 0 -0 -0 0 0 0 0 -0 -0
0 0 0 0 0 0 0 -0 0 0 0 0 0 -0 -0 -0 -0 -0 -0 0 0 0 0 0 0 0 0 0 0 0 0 0 0 0 0 -0 -0 -0 -0 0 -0 -0 0
0 0 0 0 0 0 0 0 0 0 0 0 0 0 0 0 -0 -0 -0 -0 -0 -0 0 0 0 0 0 0 0 0 0 0 0 0 0 0 -0 -0 -0 -0 0 -0 -0
0 0 0 0 0 0 0 0 0 0 0 0 0 0 0 0 0 0 0 -0 -0 0 0 0 0 0 0 0 0 0 0 0 0 0 0 0 -0 -0 -0 -0 0 0 0
0 0 0 0 0 0 0 0 0 0 0 0 0 0 0 0 0 0 0 0 0 0 0 0 0 0 0 0 0 0 0 0 0 0 0 0 0 0 -0 0 0 0 0
0 0 0 0 0 0 0 0 0 0 0 0 0 0 0 0 0 0 0 0 0 0 0 0 0 0 0 0 0 0 0 0 0 0 0 0 0 0 0 0 0 0 0
0 0 0 0 0 0 0 0 0 0 0 0 0 0 0 0 0 0 0 0 0 0 0 0 0 0 0 0 0 0 0 0 0 0 0 0 0 0 0 0 0 0 0
0 0 0 0 0 0 0 0 0 0 0 0 0 0 0 0 0 0 0 0 0 0 0 0 0 0 0 0 0 0 0 0 0 0 0 0 0 0 0 0 0 0 0
0 0 0 0 0 0 0 0 0 0 0 0 0 0 0 0 0 0 0 0 0 0 0 0 0 0 0 0 0 0 0 0 0 0 0 0 0 0 0 0 0 0 0
0 0 0 0 0 0 0 0 0 0 0 0 0 0 0 0 0 0 0 0 0 0 0 0 0 0 0 0 0 0 0 0 0 0 0 0 0 0 0 0 0 0 0
0 0 0 0 0 0 0 0 0 0 0 0 0 0 0 0 0 0 0 0 0 0 0 0 0 0 0 0 0 0 0 0 0 0 0 0 0 0 0 0 0 0 0
0 0 0 0 0 0 0 0 0 0 0 0 0 0 0 0 0 0 0 0 0 0 0 0 0 0 0 0 0 0 0 0 0 0 0 0 0 0 0 0 0 0 0
0 0 0 0 0 0 0 0 0 0 0 0 0 0 0 0 0 0 0 0 0 0 0 0 0 0 0 0 0 0 0 0 0 0 0 0 0 0 0 0 0 0 0
0 0 0 0 0 0 0 0 0 0 0 0 0 0 0 0 0 0 0 0 0 0 0 0 0 0 0 0 0 0 0 0 0 0 0 0 0 0 0 0 0 0 0
0 0 0 0 0 0 0 0 0 0 0 0 0 0 0 0 0 0 0 0 0 0 0 0 0 0 0 0 0 0 0 0 0 0 0 0 0 0 0 0 0 0 0
0 0 0 0 0 0 0 0 0 0 0 0 0 0 0 0 0 0 0 0 0 0 0 0 0 0 0 0 0 0 0 0 0 0 0 0 0 0 0 0 0 0 0
0 0 0 0 0 0 0 0 0 0 0 0 0 0 0 0 0 0 0 0 0 0 0 0 0 0 0 0 0 0 0 0 0 0 0 0 0 0 0 0 0 0 0
0 0 0 0 0 0 0 0 0 0 0 0 0 0 0 0 0 0 0 0 0 0 0 0 0 0 0 0 0 0 0 0 0 0 0 0 0 0 0 0 0 0 0
0 0 0 0 0 0 0 0 0 0 0 0 0 0 0 0 0 0 0 0 0 0 0 0 0 0 0 0 0 0 0 0 0 0 0 0 0 0 0 0 0 0 0
0 0 0 0 0 0 0 0 0 0 0 0 0 0 0 0 0 0 0 0 0 0 0 0 0 0 0 0 0 0 0 0 0 0 0 0 0 0 0 0 0 0 0
Wind_Speed_500mb
61 53 43 36 29 27 27 29 32 31 31 34 36 38 40 40 35 37 37 36 34 33 33 24 23 23 23 22 20 23 26 28 30 30 33 35 32 29 39 34 32 31 30
68 58 48 37 31 29 28 34 37 36 36 39 40 41 42 37 31 30 34 32 25 24 25 21 19 17 18 21 19 25 29 30 31 30 28 34 32 27 32 29 31 26 28
68 59 50 38 33 32 34 38 40 38 37 37 38 39 35 33 32 32 29 31 27 19 15 16 14 14 18 22 28 27 30 32 32 30 29 29 27 23 25 24 24 26 24
67 58 49 40 35 35 39 40 42 37 36 37 35 35 36 33 28 26 26 23 22 18 16 17 17 18 19 23 29 31 31 30 30 28 28 28 26 25 24 24 22 22 21
63 56 48 41 39 38 43 40 42 40 37 36 38 36 28 22 17 15 17 19 22 15 12 17 16 16 18 21 24 25 24 24 24 24 25 25 24 24 23 22 21 19 18
60 54 47 41 41 41 45 43 40 39 34 30 30 25 17 11 7 5 9 17 25 22 19 16 15 15 17 19 21 22 21 20 20 21 21 21 20 20 20 19 18 17 15
59 52 46 41 42 43 46 42 38 35 32 27 24 18 12 9 8 8 10 18 21 26 19 17 16 15 16 17 16 17 17 16 17 17 18 18 17 17 17 17 17 17 16
56 51 44 41 42 44 46 42 37 32 27 24 22 15 11 9 9 11 16 18 17 23 23 20 17 14 12 11 11 11 13 13 14 13 13 13 13 14 15 15 15 15 14
52 49 47 42 42 42 43 40 37 36 28 22 18 11 10 12 14 14 16 22 21 23 21 18 15 12 9 7 6 7 8 9 10 10 11 10 10 11 12 14 15 15 16
54 48 48 45 45 44 46 40 36 35 25 19 14 12 14 17 17 14 16 21 21 19 17 15 12 8 5 3 2 3 5 6 6 7 8 7 8 8 10 12 14 14 15
57 52 48 47 46 44 44 41 37 34 25 18 13 14 16 17 19 17 18 20 20 17 14 12 9 7 5 3 3 4 6 6 5 6 9 7 8 9 10 12 14 15 16
62 57 50 49 48 45 44 43 40 35 25 16 14 13 16 17 19 18 15 17 18 16 13 8 6 7 7 6 6 7 7 6 8 8 11 11 12 13 14 16 17 17 17
65 58 54 49 48 46 47 47 42 35 26 18 15 13 19 19 17 15 11 9 13 12 8 3 4 5 8 8 8 8 10 10 12 13 13 14 14 15 16 16 17 18 17
61 54 51 50 50 47 45 46 43 37 28 23 19 15 14 14 11 8 9 9 8 7 5 5 7 7 7 8 9 11 13 14 13 13 13 14 15 15 16 16 17 16 15
56 52 50 49 50 48 47 45 42 37 29 24 20 16 13 9 7 4 4 8 8 7 6 7 8 9 10 11 12 12 14 14 15 16 15 14 16 15 16 19 18 15 12
53 49 46 48 48 46 45 45 41 37 30 26 21 16 12 10 8 6 4 6 6 6 8 8 7 9 10 12 14 15 16 17 17 15 14 13 14 17 19 16 15 13 12
44 41 44 45 47 45 42 42 39 36 33 28 22 19 16 14 13 12 12 11 10 10 11 11 10 10 13 16 16 17 19 18 13 12 11 13 14 16 14 12 12 12 11
38 37 36 38 45 46 44 40 37 35 33 30 26 22 18 16 17 16 16 15 16 16 15 15 14 15 17 19 15 16 18 13 14 14 13 15 13 8 6 6 7 7 9
37 36 38 37 39 42 45 42 37 33 30 25 23 23 20 17 13 13 14 11 17 18 17 15 15 17 16 17 19 22 21 20 20 18 15 8 4 3 2 2 3 5 8
39 36 35 30 31 38 43 42 38 33 33 32 28 27 26 23 21 19 17 15 17 17 20 18 18 17 19 21 24 27 27 26 22 14 8 8 2 1 3 2 4 6 8
47 43 39 37 33 36 44 45 43 42 39 34 34 29 27 26 26 24 22 21 22 22 21 23 22 23 25 25 29 29 24 16 2 9 13 7 4 4 5 8 11 14 17
41 43 43 42 39 40 42 40 43 44 42 35 31 31 28 30 29 28 27 27 26 25 27 28 30 31 32 29 32 29 16 7 9 9 3 9 12 9 11 16 20 22 23
33 37 44 49 51 48 47 47 45 45 45 41 36 35 33 32 31 32 32 31 31 31 31 31 34 37 37 36 35 27 14 8 6 15 14 16 17 17 18 16 17 23 23
31 38 47 42 47 45 49 49 52 53 49 41 37 32 32 29 34 37 38 37 36 36 37 39 37 39 38 43 42 42 43 43 25 17 19 24 25 30 22 21 22 23 25
20 26 32 34 34 30 41 41 44 48 47 49 50 48 41 38 34 36 37 38 40 40 41 41 40 43 45 47 46 50 52 54 52 47 42 41 40 28 23 25 23 21 22
12 14 19 24 29 30 31 36 38 45 43 43 45 44 40 35 35 33 37 39 43 44 45 44 44 47 48 50 52 55 59 61 66 66 62 42 40 26 31 27 23 23 23
Wind_Direction_500mb
173 167 173 175 173 169 162 158 157 150 140 132 130 131 126 116 112 103 117 123 128 119 121 125 108 90 71 64 69 78 85 86 84 90 93 86 73 66 80 73 71 81 75
167 166 173 173 168 166 157 147 143 138 135 133 132 135 132 129 125 108 116 136 143 137 131 120 108 90 62 71 79 89 89 86 80 80 81 88 86 83 77 86 69 79 75
166 165 172 172 164 161 153 145 141 137 137 138 137 140 139 135 126 115 115 125 127 134 156 120 123 99 81 78 86 93 89 83 80 78 79 87 79 77 75 72 77 84 66
166 166 170 167 163 160 152 146 144 141 142 144 140 143 138 136 130 124 131 139 127 122 123 124 115 101 93 90 84 84 85 84 81 78 77 74 77 71 67 68 70 71 70
167 167 166 164 161 159 151 150 151 148 140 141 146 142 141 141 137 139 143 165 174 163 161 124 122 105 102 91 84 82 84 81 75 76 76 76 73 68 65 63 62 61 61
167 166 164 163 160 159 156 156 156 159 154 152 148 156 163 169 177 167 148 158 175 185 143 140 122 117 108 95 87 85 81 77 72 70 73 69 67 63 60 56 55 54 52
166 165 163 163 162 162 160 158 160 160 163 161 163 169 178 190 179 151 139 142 139 161 153 142 133 125 112 100 88 83 78 72 69 65 65 62 57 54 48 46 40 35 33
165 164 164 165 165 165 165 163 163 159 155 153 162 165 174 181 174 143 137 149 131 132 141 139 134 125 111 96 83 77 68 62 55 53 54 53 49 48 37 32 30 26 21
169 166 167 167 168 168 169 168 166 163 156 153 152 155 163 169 171 151 136 146 135 133 137 138 135 133 125 108 85 59 46 44 40 37 36 30 23 22 23 20 17 10 5
171 170 171 171 171 172 173 174 171 167 165 160 162 167 163 166 172 164 133 129 137 135 138 140 145 153 155 150 77 31 17 17 12 14 16 13 4 358 0 1 0 356 351
176 177 176 174 175 175 177 177 177 174 179 177 177 169 166 166 169 168 154 151 146 146 150 158 177 188 206 244 296 328 345 355 354 349 349 343 339 334 334 337 338 343 344
179 181 181 179 178 179 181 182 178 182 185 186 172 170 171 157 154 155 161 157 153 159 164 169 202 228 238 256 278 293 311 318 324 324 321 322 322 322 322 324 328 332 334
182 183 184 180 181 183 185 185 185 188 187 184 172 158 159 160 157 158 164 131 135 148 157 186 247 260 249 261 280 288 305 307 307 307 312 320 325 322 319 318 320 322 324
184 186 186 184 185 186 187 187 189 189 189 185 176 165 156 149 143 144 179 180 178 196 227 262 270 269 269 274 284 293 301 306 308 305 303 310 315 317 317 317 316 321 334
187 190 191 189 189 188 190 190 192 192 193 189 188 184 178 169 164 150 168 189 198 209 234 258 261 258 264 272 280 290 297 300 303 306 304 304 312 308 313 318 317 321 339
191 194 196 194 193 192 195 197 197 198 199 200 201 203 209 213 221 235 237 210 219 240 260 269 288 265 278 275 281 285 288 294 301 302 303 308 304 306 309 316 318 319 323
185 189 197 198 198 197 199 204 206 206 207 212 215 219 224 235 244 247 253 255 252 262 281 277 283 286 279 280 278 285 295 304 312 309 309 316 320 314 301 302 310 314 318
189 191 194 199 201 202 203 205 209 213 217 220 223 231 238 250 253 256 258 260 259 261 278 281 283 286 289 288 302 291 297 308 309 300 294 301 319 325 315 303 313 330 343
202 203 201 202 205 207 206 208 212 217 225 231 234 234 232 242 257 263 261 256 251 260 271 273 276 282 293 299 305 311 311 304 291 286 281 279 279 327 19 53 338 2 7
208 207 207 207 211 208 206 209 211 210 219 223 229 233 237 240 248 257 258 260 267 269 267 274 280 278 287 290 300 303 309 308 300 293 267 186 218 264 234 231 316 331 337
211 210 208 209 203 202 203 207 207 210 219 224 224 230 238 241 247 255 258 264 268 275 274 274 282 284 288 291 298 302 311 304 332 134 146 192 223 278 240 250 271 285 289
214 215 213 213 217 213 213 212 211 209 217 221 231 235 237 245 248 254 258 265 270 274 277 278 280 281 282 286 286 295 312 294 188 175 225 238 249 274 282 270 276 292 296
217 223 217 214 217 219 218 218 222 219 220 225 229 235 243 249 254 257 263 266 268 270 274 279 279 277 281 280 279 269 277 251 238 256 244 270 236 285 287 279 283 297 304
209 214 220 226 232 223 229 230 224 228 229 235 240 249 254 257 259 263 266 267 268 270 274 278 278 277 277 278 272 265 264 265 260 259 263 241 252 289 271 267 288 296 305
196 209 221 228 230 224 222 224 226 233 238 241 248 249 246 253 258 260 264 269 273 273 275 277 275 275 276 274 274 269 264 264 258 246 245 245 255 248 251 263 271 281 294
180 196 217 224 229 233 236 235 231 222 231 241 251 256 251 250 252 253 252 257 260 268 271 271 272 272 275 272 272 272 265 259 256 247 240 239 241 235 287 244 260 275 281
Wind_Speed_850mb
61 53 43 36 29 27 27 29 32 31 31 34 36 38 40 40 35 37 37 36 34 33 33 24 23 23 23 22 20 23 26 28 30 30 33 35 32 29 39 34 32 31 30
68 58 48 37 31 29 28 34 37 36 36 39 40 41 42 37 31 30 34 32 25 24 25 21 19 17 18 21 19 25 29 30 31 30 28 34 32 27 32 29 31 26 28
68 59 50 38 33 32 34 38 40 38 37 37 38 39 35 33 32 32 29 31 27 19 15 16 14 14 18 22 28 27 30 32 32 30 29 29 27 23 25 24 24 26 24
67 58 49 40 35 35 39 40 42 37 36 37 35 35 36 33 28 26 26 23 22 18 16 17 17 18 19 23 29 31 31 30 30 28 28 28 26 25 24 24 22 22 21
63 56 48 41 39 38 43 40 42 40 37 36 38 36 28 22 17 15 17 19 22 15 12 17 16 16 18 21 24 25 24 24 24 24 25 25 24 24 23 22 21 19 18
60 54 47 41 41 41 45 43 40 39 34 30 30 25 17 11 7 5 9 17 25 22 19 16 15 15 17 19 21 22 21 20 20 21 21 21 20 20 20 19 18 17 15
59 52 46 41 42 43 46 42 38 35 32 27 24 18 12 9 8 8 10 18 21 26 19 17 16 15 16 17 16 17 17 16 17 17 18 18 17 17 17 17 17 17 16
56 51 44 41 42 44 46 42 37 32 27 24 22 15 11 9 9 11 16 18 17 23 23 20 17 14 12 11 11 11 13 13 14 13 13 13 13 14 15 15 15 15 14
52 49 47 42 42 42 43 40 37 36 28 22 18 11 10 12 14 14 16 22 21 23 21 18 15 12 9 7 6 7 8 9 10 10 11 10 10 11 12 14 15 15 16
54 48 48 45 45 44 46 40 36 35 25 19 14 12 14 17 17 14 16 21 21 19 17 15 12 8 5 3 2 3 5 6 6 7 8 7 8 8 10 12 14 14 15
57 52 48 47 46 44 44 41 37 34 25 18 13 14 16 17 19 17 18 20 20 17 14 12 9 7 5 3 3 4 6 6 5 6 9 7 8 9 10 12 14 15 16
62 57 50 49 48 45 44 43 40 35 25 16 14 13 16 17 19 18 15 17 18 16 13 8 6 7 7 6 6 7 7 6 8 8 11 11 12 13 14 16 17 17 17
65 58 54 49 48 46 47 47 42 35 26 18 15 13 19 19 17 15 11 9 13 12 8 3 4 5 8 8 8 8 10 10 12 13 13 14 14 15 16 16 17 18 17
61 54 51 50 50 47 45 46 43 37 28 23 19 15 14 14 11 8 9 9 8 7 5 5 7 7 7 8 9 11 13 14 13 13 13 14 15 15 16 16 17 16 15
56 52 50 49 50 48 47 45 42 37 29 24 20 16 13 9 7 4 4 8 8 7 6 7 8 9 10 11 12 12 14 14 15 16 15 14 16 15 16 19 18 15 12
53 49 46 48 48 46 45 45 41 37 30 26 21 16 12 10 8 6 4 6 6 6 8 8 7 9 10 12 14 15 16 17 17 15 14 13 14 17 19 16 15 13 12
44 41 44 45 47 45 42 42 39 36 33 28 22 19 16 14 13 12 12 11 10 10 11 11 10 10 13 16 16 17 19 18 13 12 11 13 14 16 14 12 12 12 11
38 37 36 38 45 46 44 40 37 35 33 30 26 22 18 16 17 16 16 15 16 16 15 15 14 15 17 19 15 16 18 13 14 14 13 15 13 8 6 6 7 7 9
37 36 38 37 39 42 45 42 37 33 30 25 23 23 20 17 13 13 14 11 17 18 17 15 15 17 16 17 19 22 21 20 20 18 15 8 4 3 2 2 3 5 8
39 36 35 30 31 38 43 42 38 33 33 32 28 27 26 23 21 19 17 15 17 17 20 18 18 17 19 21 24 27 27 26 22 14 8 8 2 1 3 2 4 6 8
47 43 39 37 33 36 44 45 43 42 39 34 34 29 27 26 26 24 22 21 22 22 21 23 22 23 25 25 29 29 24 16 2 9 13 7 4 4 5 8 11 14 17
41 43 43 42 39 40 42 40 43 44 42 35 31 31 28 30 29 28 27 27 26 25 27 28 30 31 32 29 32 29 16 7 9 9 3 9 12 9 11 16 20 22 23
33 37 44 49 51 48 47 47 45 45 45 41 36 35 33 32 31 32 32 31 31 31 31 31 34 37 37 36 35 27 14 8 6 15 14 16 17 17 18 16 17 23 23
31 38 47 42 47 45 49 49 52 53 49 41 37 32 32 29 34 37 38 37 36 36 37 39 37 39 38 43 42 42 43 43 25 17 19 24 25 30 22 21 22 23 25
20 26 32 34 34 30 41 41 44 48 47 49 50 48 41 38 34 36 37 38 40 40 41 41 40 43 45 47 46 50 52 54 52 47 42 41 40 28 23 25 23 21 22
12 14 19 24 29 30 31 36 38 45 43 43 45 44 40 35 35 33 37 39 43 44 45 44 44 47 48 50 52 55 59 61 66 66 62 42 40 26 31 27 23 23 23
Wind_Direction_850mb
173 167 173 175 173 169 162 158 157 150 140 132 130 131 126 116 112 103 117 123 128 119 121 125 108 90 71 64 69 78 85 86 84 90 93 86 73 66 80 73 71 81 75
167 166 173 173 168 166 157 147 143 138 135 133 132 135 132 129 125 108 116 136 143 137 131 120 108 90 62 71 79 89 89 86 80 80 81 88 86 83 77 86 69 79 75
166 165 172 172 164 161 153 145 141 137 137 138 137 140 139 135 126 115 115 125 127 134 156 120 123 99 81 78 86 93 89 83 80 78 79 87 79 77 75 72 77 84 66
166 166 170 167 163 160 152 146 144 141 142 144 140 143 138 136 130 124 131 139 127 122 123 124 115 101 93 90 84 84 85 84 81 78 77 74 77 71 67 68 70 71 70
167 167 166 164 161 159 151 150 151 148 140 141 146 142 141 141 137 139 143 165 174 163 161 124 122 105 102 91 84 82 84 81 75 76 76 76 73 68 65 63 62 61 61
167 166 164 163 160 159 156 156 156 159 154 152 148 156 163 169 177 167 148 158 175 185 143 140 122 117 108 95 87 85 81 77 72 70 73 69 67 63 60 56 55 54 52
166 165 163 163 162 162 160 158 160 160 163 161 163 169 178 190 179 151 139 142 139 161 153 142 133 125 112 100 88 83 78 72 69 65 65 62 57 54 48 46 40 35 33
165 164 164 165 165 165 165 163 163 159 155 153 162 165 174 181 174 143 137 149 131 132 141 139 134 125 111 96 83 77 68 62 55 53 54 53 49 48 37 32 30 26 21
169 166 167 167 168 168 169 168 166 163 156 153 152 155 163 169 171 151 136 146 135 133 137 138 135 133 125 108 85 59 46 44 40 37 36 30 23 22 23 20 17 10 5
171 170 171 171 171 172 173 174 171 167 165 160 162 167 163 166 172 164 133 129 137 135 138 140 145 153 155 150 77 31 17 17 12 14 16 13 4 358 0 1 0 356 351
176 177 176 174 175 175 177 177 177 174 179 177 177 169 166 166 169 168 154 151 146 146 150 158 177 188 206 244 296 328 345 355 354 349 349 343 339 334 334 337 338 343 344
179 181 181 179 178 179 181 182 178 182 185 186 172 170 171 157 154 155 161 157 153 159 164 169 202 228 238 256 278 293 311 318 324 324 321 322 322 322 322 324 328 332 334
182 183 184 180 181 183 185 185 185 188 187 184 172 158 159 160 157 158 164 131 135 148 157 186 247 260 249 261 280 288 305 307 307 307 312 320 325 322 319 318 320 322 324
184 186 186 184 185 186 187 187 189 189 189 185 176 165 156 149 143 144 179 180 178 196 227 262 270 269 269 274 284 293 301 306 308 305 303 310 315 317 317 317 316 321 334
187 190 191 189 189 188 190 190 192 192 193 189 188 184 178 169 164 150 168 189 198 209 234 258 261 258 264 272 280 290 297 300 303 306 304 304 312 308 313 318 317 321 339
191 194 196 194 193 192 195 197 197 198 199 200 201 203 209 213 221 235 237 210 219 240 260 269 288 265 278 275 281 285 288 294 301 302 303 308 304 306 309 316 318 319 323
185 189 197 198 198 197 199 204 206 206 207 212 215 219 224 235 244 247 253 255 252 262 281 277 283 286 279 280 278 285 295 304 312 309 309 316 320 314 301 302 310 314 318
189 191 194 199 201 202 203 205 209 213 217 220 223 231 238 250 253 256 258 260 259 261 278 281 283 286 289 288 302 291 297 308 309 300 294 301 319 325 315 303 313 330 343
202 203 201 202 205 207 206 208 212 217 225 231 234 234 232 242 257 263 261 256 251 260 271 273 276 282 293 299 305 311 311 304 291 286 281 279 279 327 19 53 338 2 7
208 207 207 207 211 208 206 209 211 210 219 223 229 233 237 240 248 257 258 260 267 269 267 274 280 278 287 290 300 303 309 308 300 293 267 186 218 264 234 231 316 331 337
211 210 208 209 203 202 203 207 207 210 219 224 224 230 238 241 247 255 258 264 268 275 274 274 282 284 288 291 298 302 311 304 332 134 146 192 223 278 240 250 271 285 289
214 215 213 213 217 213 213 212 211 209 217 221 231 235 237 245 248 254 258 265 270 274 277 278 280 281 282 286 286 295 312 294 188 175 225 238 249 274 282 270 276 292 296
217 223 217 214 217 219 218 218 222 219 220 225 229 235 243 249 254 257 263 266 268 270 274 279 279 277 281 280 279 269 277 251 238 256 244 270 236 285 287 279 283 297 304
209 214 220 226 232 223 229 230 224 228 229 235 240 249 254 257 259 263 266 267 268 270 274 278 278 277 277 278 272 265 264 265 260 259 263 241 252 289 271 267 288 296 305
196 209 221 228 230 224 222 224 226 233 238 241 248 249 246 253 258 260 264 269 273 273 275 277 275 275 276 274 274 269 264 264 258 246 245 245 255 248 251 263 271 281 294
180 196 217 224 229 233 236 235 231 222 231 241 251 256 251 250 252 253 252 257 260 268 271 271 272 272 275 272 272 272 265 259 256 247 240 239 241 235 287 244 260 275 281